User: anonymous   Login
Location: Newark
(54.6833°N, 25.2833°E)
Time: 03:24:54
(UTC+00:00)
Language:

Transit 2A - Orbit

View from above orbital plane
View from above orbital plane
View from above satellite
View from above satellite

Ground track
Ground track

The orbit data is extracted from the following two-line orbital elements,

1    45U 60007A   20264.87759225 -.00000092 +00000-0 +44664-5 0  9992
2    45 066.6936 129.4256 0262334 246.7711 110.5571 14.33687320079513
Epoch (UTC): 20 September 2020 21:03:43
Eccentricity: 0.0262334
inclination: 66.6936°
perigee height: 591 km
apogee height: 967 km
right ascension of ascending node: 129.4256°
argument of perigee: 246.7711°
revolutions per day: 14.33687320
mean anomaly at epoch: 110.5571°
orbit number at epoch: 7951

The dashed part of the orbit path shows where the satellite is in the earth's shadow,  

DLR